TimePDT,TemperatureF,Dew PointF,Humidity,Sea Level PressureIn,VisibilityMPH,Wind Direction,Wind SpeedMPH,Gust SpeedMPH,PrecipitationIn,Events,Conditions,WindDirDegrees,DateUTC
12:56 AM,33.1,28.9,85,30.31,10.0,Calm,Calm,-,N/A,,Clear,0,2013-05-20 07:56:00
1:56 AM,33.1,28.9,85,30.30,10.0,Calm,Calm,-,N/A,,Clear,0,2013-05-20 08:56:00
2:56 AM,30.9,28.0,89,30.30,10.0,South,3.5,-,N/A,,Clear,170,2013-05-20 09:56:00
3:56 AM,32.0,28.9,88,30.31,10.0,South,4.6,-,N/A,,Clear,170,2013-05-20 10:56:00
4:56 AM,30.9,28.0,89,30.29,10.0,SSE,5.8,-,N/A,,Clear,150,2013-05-20 11:56:00
5:56 AM,32.0,28.0,85,30.29,10.0,Calm,Calm,-,N/A,,Clear,0,2013-05-20 12:56:00
6:56 AM,39.0,30.9,73,30.28,10.0,SE,5.8,-,N/A,,Clear,140,2013-05-20 13:56:00
7:56 AM,46.0,33.1,61,30.26,10.0,ESE,4.6,-,N/A,,Clear,110,2013-05-20 14:56:00
8:56 AM,52.0,34.0,50,30.24,10.0,Variable,3.5,-,N/A,,Clear,0,2013-05-20 15:56:00
9:56 AM,59.0,34.0,39,30.21,10.0,Variable,5.8,-,N/A,,Clear,0,2013-05-20 16:56:00
10:56 AM,62.1,30.0,30,30.19,10.0,Calm,Calm,-,N/A,,Clear,0,2013-05-20 17:56:00
11:56 AM,66.0,26.1,22,30.15,10.0,Variable,5.8,-,N/A,,Clear,0,2013-05-20 18:56:00
12:56 PM,69.1,25.0,19,30.12,10.0,Variable,5.8,-,N/A,,Clear,0,2013-05-20 19:56:00
1:56 PM,73.0,24.1,16,30.08,10.0,Variable,3.5,-,N/A,,Clear,0,2013-05-20 20:56:00
2:56 PM,73.9,23.0,15,30.04,10.0,Variable,3.5,-,N/A,,Clear,0,2013-05-20 21:56:00
3:56 PM,75.0,25.0,16,30.00,10.0,Variable,3.5,-,N/A,,Clear,0,2013-05-20 22:56:00
4:56 PM,77.0,26.1,15,29.97,10.0,Variable,3.5,-,N/A,,Clear,0,2013-05-20 23:56:00
5:56 PM,75.0,25.0,16,29.94,10.0,Variable,6.9,-,N/A,,Clear,0,2013-05-21 00:56:00
6:56 PM,75.0,25.0,16,29.90,10.0,Variable,4.6,-,N/A,,Clear,0,2013-05-21 01:56:00
7:56 PM,72.0,27.0,19,29.88,10.0,NNW,8.1,-,N/A,,Clear,330,2013-05-21 02:56:00
8:56 PM,64.9,42.1,43,29.88,10.0,NW,15.0,20.7,N/A,,Clear,310,2013-05-21 03:56:00
9:56 PM,62.1,41.0,46,29.88,10.0,WNW,13.8,-,N/A,,Partly Cloudy,300,2013-05-21 04:56:00
10:56 PM,57.9,39.9,51,29.87,10.0,NE,4.6,-,N/A,,Mostly Cloudy,50,2013-05-21 05:56:00
11:56 PM,57.0,37.0,47,29.86,10.0,NNW,4.6,-,N/A,,Scattered Clouds,330,2013-05-21 06:56:00